Location: Unspecified
(0.0000°N, 0.0000°E)
Time: 19:27:42
(UTC-05:00)

Daily predictions for brighter satellites

Satellite Brightness Start Highest point End
(mag) Time Altitude Azimuth Time Altitude Azimuth Time Altitude Azimuth
ARIANE 5 R/B 4.1 12:28:49 10° W 12:33:15 83° N 13:13:49 10° E
Cosmos 1536 Rocket 4.2 13:24:38 10° NNW 13:28:54 62° W 13:33:11 10° S
Cosmos 1812 2.8 13:27:14 10° N 13:31:05 82° W 13:34:59 10° S
Cosmos 1536 2.9 13:27:20 10° S 13:31:19 81° W 13:35:17 10° N
Cosmos 1455 Rocket 3.8 13:28:54 10° SSE 13:32:42 30° E 13:36:29 10° NNE
Cosmos 1934 Rocket 4.3 13:27:15 10° SSE 13:32:58 43° E 13:38:40 10° NNE
Cosmos 1697 Rocket 3.4 13:30:08 10° SSE 13:35:06 32° ESE 13:40:02 10° NE
ISS -0.2 13:34:03 10° WSW 13:35:16 12° SW 13:36:30 10° SSW
SL-24 R/B - RUBIN 2 4.2 13:30:59 10° SSW 13:35:50 78° WNW 13:41:24 10° NNE
Cosmos 1833 4.3 13:38:03 10° N 13:43:41 61° ENE 13:49:22 10° SSE
GPS 2-12 Rocket1 3.1 13:39:48 10° WNW 13:44:30 86° NNE 13:48:20 16° ESE
Cosmos 1025 Rocket 4.0 13:41:14 10° NNE 13:44:42 24° E 13:48:10 10° SE
GPS 2-04 Rocket1 3.7 13:42:35 10° WNW 13:46:07 39° SW 13:49:50 10° SSE
Cosmos 2219 4.2 13:42:32 10° NNE 13:47:03 25° ENE 13:50:46 14° ESE
Cosmos 1484 Rocket 2.9 13:43:38 10° S 13:47:28 77° WSW 13:51:13 10° NNW
Cosmos 1980 Rocket 2.9 13:53:13 10° SSE 13:58:00 29° ESE 14:02:47 10° NE
Spot 2 Rocket 3.9 13:57:01 10° SSE 14:01:49 41° ENE 14:06:33 10° N
Resurs 01 Rocket 2.1 13:59:13 12° SE 14:02:54 39° ENE 14:07:00 10° N
ALOS 4.2 14:06:05 13° NE 14:06:05 13° NE 14:07:02 10° NE
Meteor 2-16 Rocket 4.5 13:58:49 10° S 14:04:56 84° W 14:11:00 10° N
ATLAS 2AS CENTAUR R/B 3.0 13:58:19 10° NNW 14:05:39 70° WSW 14:12:17 10° SSE
Cosmos 1544 Rocket 4.4 14:02:24 10° SSW 14:06:37 53° W 14:10:52 10° N
Meteor 2-4 Rocket 4.1 14:01:05 10° NNE 14:06:39 43° E 14:12:12 10° SSE
Meteor 1-12 Rocket 4.1 14:10:04 10° S 14:15:41 70° E 14:21:20 10° NNE
FREGAT/IRIS 3.2 14:14:23 10° S 14:17:28 58° W 14:20:33 10° NNW
Cosmos 1975 2.9 14:13:48 10° S 14:17:47 54° E 14:21:47 10° NNE
Cosmos 1605 Rocket 4.0 14:14:47 10° S 14:21:12 88° E 14:27:34 10° N
Sylda 4400 3.7 14:24:34 10° WNW 14:26:07 35° NW 14:26:07 35° NW
Meteor 1-23 Rocket 4.1 14:25:19 10° N 14:31:00 73° E 14:35:50 15° SSE
Delta 202 4.0 14:26:42 10° W 14:32:06 66° SSW 14:34:22 40° SE
Delta 2 Rocket 4.2 14:27:50 10° WSW 14:34:40 77° SSE 14:38:00 38° ENE
ARIANE 5 DEB (SYLDA) 3.4 14:18:35 10° W 14:35:28 86° N 14:37:30 45° E
OAO 3 Copernicus 4.3 14:34:04 10° SW 14:38:56 63° SSE 14:38:56 63° SSE
Helios 1A 3.7 14:41:06 26° SSW 14:43:08 51° WSW 14:47:10 10° NNW
Sylda 5 4.2 14:45:11 10° WNW 14:50:20 63° N 14:57:54 33° ENE
Sylda 5 4.2 14:45:11 10° WNW 14:50:20 63° N 14:57:55 33° ENE
ARIANE 44LP R/B 3.7 14:33:12 10° W 14:50:56 52° SSW 14:51:37 49° S
Cosmos 968 Rocket 4.2 14:49:52 10° NNW 14:54:45 48° WSW 14:56:55 30° SSW
Meteor 2-15 Rocket 4.4 15:01:40 10° N 15:07:37 77° W 15:07:37 77° W
Cosmos 2123 Rocket 4.2 15:08:43 10° NNW 15:14:48 67° W 15:14:48 67° W
Ariane H10+ 3.9 15:33:11 10° W 15:58:00 74° WNW 15:58:00 74° WNW
ARIANE 5 R/B 4.3 13:35:31 10° W 22:08:38 70° ESE 22:13:07 10° E
Maqsat-H 3.6 22:22:17 51° SE 22:22:17 51° SE 22:34:55 10° E
ARIANE 5 R/B 4.5 12:50:45 10° W 22:27:59 66° N 22:32:39 10° ENE
Centaur D-1A AC-35 4.4 12:34:56 10° W 22:35:49 61° NW 22:41:36 10° NE
Ariane H10 3.2 22:54:43 73° S 22:54:43 73° S 23:12:06 10° E
NATO 3D Rocket 4.2 22:57:44 52° SE 22:57:44 52° SE 23:02:45 10° ESE
Cosmos 2074 Rocket 3.9 22:54:06 10° N 23:00:20 86° E 23:06:38 10° S
Cosmos 2327 Rocket 4.4 22:56:13 10° N 23:02:24 87° E 23:08:44 10° S
Ariane H10+ 2.9 23:05:24 37° SSE 23:05:24 37° SSE 23:13:06 10° E
Cosmos 2184 Rocket 3.9 22:59:02 10° N 23:05:21 89° W 23:11:39 10° S
Meteor 2-10 Rocket 4.0 23:03:12 32° S 23:05:58 68° E 23:11:44 10° NNE
ADEOS Rocket 3.3 23:00:58 10° N 23:08:36 72° WNW 23:11:07 44° SSW
NOSS 3-3 (A) 4.4 23:07:58 34° NW 23:11:43 66° WSW 23:19:37 10° SSE
NOSS 3-3 (C) 4.4 23:07:42 31° NW 23:11:50 67° WSW 23:19:44 10° SSE
MOS 1 Rocket 4.3 23:10:47 10° NNE 23:14:53 42° ESE 23:19:10 10° S
USA 229 DEB 3.6 23:12:18 36° SSW 23:15:22 84° ESE 23:22:16 10° NNE
USA 229 3.7 23:12:19 36° SSW 23:15:28 83° ESE 23:22:22 10° NNE
deb Ariane 4.0 23:15:34 64° S 23:15:34 64° S 23:24:41 10° E
Cosmos 2082 Rocket 2.5 23:12:32 26° S 23:15:43 65° ESE 23:21:21 10° NNE
Cosmos 1782 Rocket 4.3 23:12:06 10° N 23:16:17 52° E 23:20:32 10° SSE
SL-08 ROCKET BODY 4.3 23:13:04 10° N 23:19:09 70° W 23:25:18 10° S
GPS 2-17 Rocket1 4.3 23:18:22 32° N 23:19:26 36° NNE 23:23:53 10° E
Cosmos 1782 3.8 23:17:51 22° SSE 23:20:04 46° E 23:23:54 10° NNE
Cosmos 1610 Rocket 4.4 23:14:14 10° N 23:20:28 84° E 23:26:40 10° S
Cosmos 839 Rocket 4.4 23:26:22 40° SW 23:26:22 40° SW 23:31:04 10° S
Cosmos 1833 Rocket 2.9 23:24:47 13° S 23:29:48 69° ESE 23:35:20 10° NNE
Cosmos 1023 Rocket 4.5 23:30:47 52° WNW 23:30:47 52° WNW 23:35:38 10° N
GPS 2-14 Rocket1 4.4 23:31:31 20° N 23:32:45 24° NNE 23:35:54 10° ENE
ISS -0.4 23:31:17 10° SSE 23:32:50 13° SE 23:34:24 10° E
H-10 deb 1.9 23:32:20 53° W 23:33:17 83° S 23:35:58 10° E
ARIANE 5 DEB (SYLDA) 3.4 23:32:17 33° NW 23:33:19 38° N 23:35:56 10° ENE
ADEOS II 2.7 23:29:13 10° N 23:33:18 37° WNW 23:33:18 37° WNW
Cosmos 1943 Rocket 2.0 23:29:06 10° NNW 23:34:41 78° WSW 23:40:15 10° S
Cosmos 1606 4.1 23:31:10 10° SSE 23:34:51 40° E 23:38:32 10° NNE
Cosmos 2285 Rocket 4.2 23:30:21 10° N 23:36:41 75° ENE 23:42:59 10° SSE
CZ-3 Stage 3 1.7 23:30:51 19° NW 23:36:48 85° NNE 23:39:36 10° ESE
ARIANE 3 DEB 2.6 23:39:10 53° N 23:39:10 53° N 23:41:37 10° ENE
Meteor 2-6 Rocket 4.4 23:34:49 10° S 23:40:46 80° E 23:46:42 10° N
COBE Rocket 3.9 23:36:51 10° NNE 23:41:53 84° E 23:46:47 10° S
Cosmos 1850 Rocket 4.0 23:43:07 26° SW 23:45:55 54° WNW 23:51:01 10° N
ARIANE 5 DEB (SYLDA) 4.2 23:39:45 27° W 23:46:31 87° S 23:50:43 10° E
USA 116 4.1 23:46:38 10° SSE 23:50:38 74° ENE 23:55:11 10° N
